Location: Ladrillo (historical)
(32.8195°N, 117.2231°W)
Time: 04:35:31
(UTC+00:00)

Vanguard 3 - Pass Details

Date: 02 March 2021
Orbit: 508 x 3262 km, 33.3° (Epoch: 14 April)

Event Time Altitude Azimuth Distance (km) Brightness Sun altitude
Rises 04:02:22 0° 283° (WNW) 6,114 12.9 -29.2°
Reaches altitude 10° 04:07:06 10° 282° (WNW) 4,671 11.9 -30.2°
Maximum altitude 04:18:49 69° 202° (SSW) 1,427 8.2 -32.6°
Enters shadow 04:19:23 67° 177° (S) 1,403 8.1 -32.7°
Drops below altitude 10° 04:25:11 10° 120° (ESE) 2,644 - -33.9°
Sets 04:27:12 0° 117° (ESE) 3,358 - -34.3°
